Welcome to the New NWS' Forecast!
Most changes are behind the scenes, but click here for differences you might notice.
Latest weather observations around

Texarkana, Texarkana Regional-Webb Field (KTXK)

Using English Units (Switch to International System of Units)
Date/ Time (CDT) Wind (mph) Vis. (mi) Weather Sky Cond. Temp (°F) Rel. Humidity Wind Chill (°F) Heat Index (°F) Pressure Precip. (in)
Air Dwpt 6 hour Altimeter (inHg) Sea level (inHg) 1 hr 3 hr 6 hr
Max Min
Apr 28 06:28 E 3 10 Cloudy BKN014 OVC028 59 57     93%     29.67        
Apr 28 05:53 ENE 6 10 Cloudy SCT013 OVC028 58 57     97%     29.67 29.65      
Apr 28 05:48 ENE 5 10 Cloudy BKN013 OVC028 57 57     100%     29.67        
Apr 28 04:53 E 3 10 Cloudy OVC026 57 56     96%     29.66 29.65      
Apr 28 04:24 Calm 10 Cloudy BKN025 OVC031 56 55     97%     29.66        
Apr 28 03:53 E 3 10 Mostly Cloudy BKN031 55 55     100%     29.67 29.66      
Apr 28 02:53 E 3 10 Clear CLR 56 54     93%     29.67 29.66      
Apr 28 01:53 3 10 Clear CLR 56 54     93%     29.7 29.69      
Apr 28 00:53 E 3 10 Clear CLR 58 54     87%     29.7 29.7      
Apr 27 23:53 3 10 Clear CLR 59 54     83%     29.72 29.71      
Apr 27 22:53 E 3 10 Clear CLR 59 55     87%     29.72 29.71      
Apr 27 21:53 ESE 5 10 Clear CLR 61 54     78%     29.71 29.7      
Apr 27 20:53 ESE 6 10 Clear CLR 62 54     75%     29.7 29.69      
Apr 27 19:53 ESE 5 10 Clear CLR 65 54     68%     29.69 29.69      
Apr 27 18:53 SSE 7 10 Clear CLR 69 54     59%     29.69 29.68      
Apr 27 17:53 ESE 7 10 Clear CLR 70 54     57%     29.7 29.69      
Apr 27 16:53 SE 10 10 Clear CLR 71 53     53%   70 29.72 29.72      
Apr 27 15:53 SE 13 10 Clear CLR 70 51     51%     29.76 29.75      
Apr 27 15:39 SE 8 10 Clear CLR 70 51     51%     29.76        
Apr 27 14:53 SSE 8 10 Clear CLR 69 51     53%     29.79 29.78      
Apr 27 13:53 3 10 Clear CLR 67 50     55%     29.81 29.8      
Apr 27 12:53 SSE 6 10 Clear CLR 66 49     54%     29.85 29.84      
Apr 27 11:53 Calm 10 Clear CLR 64 47     54%     29.86 29.85      
Apr 27 10:53 6 10 Clear CLR 61 46     58%     29.84 29.83      
Apr 27 09:53 E 8 10 Clear CLR 58 46     65%     29.83 29.82      
Apr 27 08:53 Calm 10 Clear CLR 55 47     74%     29.83 29.83      
Apr 27 07:53 Calm 10 Clear CLR 50 48     93%     29.83 29.83      
Apr 27 06:53 Calm 10 Clear CLR 45 45     100%     29.81 29.8      
Apr 27 05:53 SW 3 10 Clear CLR 46 46     100% 45   29.78 29.78      
Apr 27 04:53 W 3 10 Clear CLR 47 46     97% 46   29.78 29.77      
Apr 27 03:53 W 5 10 Clear CLR 48 46     93% 46   29.76 29.76      
Apr 27 02:53 SW 6 10 Clear CLR 48 47     96% 45   29.78 29.77      
Apr 27 01:53 WSW 5 10 Clear CLR 49 47     93% 47   29.78 29.77      
Apr 27 00:53 W 7 10 Clear CLR 51 47     86%     29.78 29.77     0
Apr 26 23:53 WNW 10 10 Partly Cloudy SCT029 53 48     83%     29.76 29.75      
Apr 26 22:53 WNW 9 10 Cloudy OVC025 54 49     83%     29.76 29.75      
Apr 26 21:53 NW 10 10 Cloudy OVC019 53 48     83%     29.71 29.7   0  
Apr 26 20:53 NW 16 10 Cloudy OVC016 53 49     86%     29.68 29.67      
Apr 26 20:31 NW 15 10 Cloudy OVC016 54 50     86%     29.68        
Apr 26 19:53 W 10 10 Cloudy OVC012 54 52     93%     29.65 29.64 0    
Apr 26 19:19 WNW 11 10 Cloudy SCT010 OVC014 55 53     93%     29.63   0    
Apr 26 19:01 WNW 16 8 Light Rain BKN009 OVC014 55 54     96%     29.63   0    
Apr 26 18:53 WNW 14 6 Light Rain and Fog/Mist OVC011 56 54     93%     29.62 29.61 0   1
Apr 26 17:53 WNW 20 10 Cloudy and Windy OVC010 58 56     93%     29.55 29.54 0    
Apr 26 16:53 WNW 18 10 Cloudy OVC005 60 60     100%     29.49 29.48 0    
Apr 26 16:35   7 Light Rain OVC007 64 64     100%     29.48   0    
Apr 26 16:20 WSW 8 10 Light Rain BKN008 OVC095 63 63     100%     29.5   0    
Apr 26 16:08 W 8 8 Light Rain BKN008 OVC100 63 63     100%     29.49   0    
Apr 26 16:02 SW 6 8 Light Rain SCT008 BKN095 OVC110 63 63     100%     29.49   0    
Apr 26 15:53 S 10 8 Light Rain OVC110 63 63     100%     29.5 29.49 0 1  
Apr 26 15:49 SW 8 7 Light Rain OVC110 63 63     100%     29.49   0    
Apr 26 15:08 W 9 10 Thunderstorms and Rain SCT034 SCT065 OVC090 64 62     93%     29.47   0    
Apr 26 15:01 WSW 8 2 Thunderstorms and Rain and Fog/Mist FEW028 BKN070 OVC085 63 62     97%     29.46   0    
Apr 26 14:53 W 9 1 Thunderstorms and Heavy Rain and Fog/Mist FEW028 BKN037 OVC080 63 62     97%     29.47 29.46 1    
Apr 26 14:39 W 8 1.25 Thunderstorms and Heavy Rain and Fog/Mist FEW013 BKN033 OVC065 63 62     97%     29.47   0    
Apr 26 14:32 WNW 14 0.75 Thunderstorms and Heavy Rain and Fog/Mist FEW014 SCT019 OVC031 63 62     97%     29.47   0    
Apr 26 14:24 WNW 13 1.25 Thunderstorms and Heavy Rain and Fog/Mist SCT014 BKN021 OVC047 64 62     93%     29.48   0    
Apr 26 14:21   2 Thunderstorms and Rain and Fog/Mist SCT013 BKN023 OVC049 64 63     96%     29.49   0    
Apr 26 14:01 N 8 9 Thunderstorms and Rain FEW014 BKN023 OVC036 68 65     90%     29.47   0    
Apr 26 13:53 NNW 9 8 Thunderstorms and Rain SCT021 BKN030 OVC036 71 67     87%   72 29.46 29.44 0    
Apr 26 13:42 S 11 9 Light Rain SCT028 OVC038 74 69     85%   75 29.44   0    
Apr 26 13:33   9 Light Rain BKN028 OVC036 75 69     82%   76 29.43   0    
Apr 26 12:53 S 10 9 Cloudy BKN028 BKN033 OVC060 76 69     79%   77 29.46 29.45     0
Apr 26 12:45 S 8 9 Cloudy BKN028 BKN039 OVC060 76 69     79%   77 29.47        
Apr 26 11:53 S 9 10 Cloudy SCT027 BKN036 OVC070 76 68     76%   77 29.5 29.49      
Apr 26 11:44 SSW 13 10 Cloudy SCT026 BKN031 OVC070 76 68     76%   77 29.51        
Apr 26 11:25 S 15 10 Cloudy BKN026 BKN034 OVC075 77 68     74%   78 29.51        
Apr 26 10:53 S 15 10 Partly Cloudy FEW023 SCT090 77 70     79%   78 29.49 29.48      
Apr 26 09:53 SSE 21 10 Clear and Windy CLR 72 69     91%   73 29.48 29.47   0  
Apr 26 08:53 S 13 8 Cloudy OVC055 70 69     97%     29.52 29.51      
Apr 26 07:53 S 10 8 Cloudy OVC055 69 68     96%     29.54 29.52 0    
Apr 26 07:29 SSE 6 8 Cloudy FEW029 SCT040 OVC055 69 68     96%     29.54   0    
Apr 26 06:53 SW 3 4 Light Rain and Fog/Mist BKN019 BKN024 OVC032 69 68     96%     29.53 29.52 0   0
Apr 26 06:33 SE 5 5 Light Rain and Fog/Mist FEW013 BKN024 OVC031 69 68     96%     29.53   0    
Apr 26 06:23 SSE 5 7 Light Rain BKN013 BKN019 OVC033 69 68     96%     29.53   0    
Apr 26 05:53 SW 5 10 Cloudy OVC017 70 67     90%     29.54 29.52      
Apr 26 05:04 SSE 8 10 Cloudy BKN027 OVC035 70 67     90%     29.5        
Apr 26 04:53 SSE 9 10 Cloudy FEW020 SCT029 OVC035 69 67     93%     29.49 29.48      
Apr 26 04:50 SSE 9 10 Mostly Cloudy SCT020 BKN035 70 66     88%     29.49        
Apr 26 04:03 S 7 10 Cloudy BKN025 OVC034 71 67     87%   72 29.5        
Apr 26 03:53 SSE 8 10 Cloudy SCT025 OVC034 71 67     87%   72 29.5 29.48      
Apr 26 02:53 SSW 8 10 Clear CLR 71 66     84%   72 29.5 29.49      
Apr 26 01:53 S 16 10 Clear CLR 72 66     82%   73 29.5 29.48      
Apr 26 00:53 S 14 10 Cloudy OVC042 73 66     79%   74 29.52 29.5      
Apr 25 23:53 S 16 10 Cloudy OVC045 73 66     79%   74 29.54 29.52      
Apr 25 22:53 S 16 10 Cloudy OVC045 74 66     76%   75 29.55 29.53      
Apr 25 21:53 S 14 10 Cloudy OVC046 74 65     74%   74 29.55 29.54      
Apr 25 20:53 S 14 10 Cloudy OVC046 75 65     71%   76 29.54 29.53      
Apr 25 19:53 S 14 10 Cloudy OVC043 76 65     69%   76 29.54 29.52      
Apr 25 18:53 S 14 10 Cloudy OVC040 77 65     66%   78 29.52 29.51      
Apr 25 17:53 SSE 17 10 Clear   79 65     62%   80 29.53 29.52      
Apr 25 16:53 S 16 10 Partly Cloudy SCT039 79 65     62%   80 29.54 29.52      
Apr 25 15:53 SSE 17 10 Mostly Clear FEW039 80 64     58%   82 29.55 29.54      
Apr 25 14:53 S 14 10 Partly Cloudy SCT038 80 64     58%   82 29.57 29.56      
Apr 25 13:53 S 20 10 Mostly Clear and Windy FEW034 78 63     60%   78 29.6 29.58      
Apr 25 12:53 S 15 10 Clear CLR 77 64     64%   77 29.62 29.61      
Apr 25 11:53 S 14 10 Mostly Clear FEW028 74 62     66%   74 29.65 29.64      
Apr 25 10:53 S 13 10 Mostly Clear FEW025 72 61     68%   72 29.68 29.67      
Apr 25 09:53 SSW 17 10 Mostly Clear FEW019 69 60     73%     29.69 29.68      
Apr 25 08:53 S 11 10 Clear CLR 64 57     78%     29.69 29.68      
Apr 25 07:53 S 10 10 Clear CLR 60 55     83%     29.69 29.67      
Apr 25 06:53 SSE 9 10 Clear CLR 57 53     87%     29.68 29.67      
Apr 25 05:53 SSE 10 10 Clear CLR 57 52     83%     29.68 29.67      
Apr 25 04:53 S 9 10 Clear CLR 58 52     81%     29.69 29.67      
Apr 25 03:53 S 9 10 Clear CLR 59 50     72%     29.69 29.68      
Apr 25 02:53 S 8 10 Clear CLR 60 48     64%     29.7 29.69      
Apr 25 01:53 S 13 10 Clear CLR 63 47     56%     29.7 29.69      
Apr 25 00:53 S 9 10 Clear CLR 63 47     56%     29.71 29.7      
Apr 24 23:53 SSE 10 10 Clear CLR 62 46     56%     29.72 29.71      
Apr 24 22:53 SSE 9 10 Clear CLR 64 45     50%     29.74 29.72      
Apr 24 21:53 SSE 7 10 Clear CLR 62 44     52%     29.73 29.72      
Apr 24 20:53 SSE 6 10 Clear CLR 62 45     53%     29.73 29.72      
Apr 24 19:53 S 7 10 Clear CLR 68 44     42%     29.73 29.72      
Apr 24 18:53 SSE 10 10 Clear CLR 73 45     37%   72 29.73 29.72      
Apr 24 17:53 SSE 8 10 Clear CLR 75 45     34%   74 29.75 29.74      
Apr 24 16:53 S 9 10 Clear CLR 77 44     31%   76 29.77 29.76      
Apr 24 15:53 S 9 10 Clear CLR 76 43     31%   75 29.8 29.79      
Apr 24 14:53 S 7 10 Clear CLR 75 42     31%   74 29.83 29.82      
Apr 24 13:53 3 10 Clear CLR 74 40     29%   72 29.87 29.86      
Apr 24 12:53 Calm 10 Clear CLR 73 38     28%   71 29.91 29.91      
Apr 24 11:53 SSW 6 10 Clear CLR 71 40     32%   69 29.96 29.95      
Apr 24 10:53 NNW 3 10 Clear CLR 71 40     32%   69 29.98 29.97      
Apr 24 09:53 NE 3 10 Clear CLR 65 48     54%     29.99 29.98      
Apr 24 08:53 ENE 3 10 Clear CLR 58 47     67%     29.99 29.99      
Apr 24 07:53 Calm 10 Clear CLR 51 48     89%     29.99 29.98      
Apr 24 06:53 Calm 10 Clear CLR 45 44     97%     29.98 29.97      
Apr 24 05:53 Calm 10 Clear CLR 48 44     86%     29.96 29.95      
Apr 24 04:53 WNW 3 10 Clear CLR 51 44     77%     29.95 29.94      
Apr 24 03:53 Calm 10 Clear CLR 49 45     86%     29.95 29.94      
Apr 24 02:53 Calm 10 Clear CLR 48 45     89%     29.93 29.92      
Apr 24 01:53 Calm 10 Clear CLR 50 45     83%     29.93 29.92      
Apr 24 00:53 Calm 10 Clear CLR 50 46     86%     29.95 29.94      
Apr 23 23:53 Calm 10 Clear CLR 50 46     86%     29.98 29.97      
Apr 23 22:53 Calm 10 Clear CLR 52 48     86%     29.99 29.98      
Apr 23 21:53 Calm 10 Clear CLR 57 44     62%     30 30      
Apr 23 20:53 Calm 10 Clear CLR 54 48     80%     29.99 29.98      
Apr 23 19:53 N 5 10 Clear CLR 65 45     48%     29.98 29.98      
Apr 23 19:31 NNW 5 10 Clear CLR 67 43     42%     29.98        
Apr 23 18:53 N 8 10 Clear CLR 70 43     38%     29.99 29.98      
Apr 23 17:53 NW 11 10 Clear CLR 71 43     36%   70 29.98 29.97      
Apr 23 16:53 NNW 7 10 Clear CLR 71 45     39%   70 29.98 29.97      
Apr 23 15:53 7 10 Clear CLR 70 44     39%     30 29.99      
Apr 23 14:53 NW 10 10 Clear CLR 68 46     45%     30.02 30.01      
Apr 23 13:53 3 10 Clear CLR 66 46     48%     30.03 30.02      
Apr 23 12:53 NNE 10 10 Clear CLR 65 45     48%     30.05 30.04      
Apr 23 11:53 NNE 7 10 Clear CLR 63 45     52%     30.07 30.07      
Apr 23 10:53 NE 8 10 Clear CLR 60 44     55%     30.08 30.07      
Apr 23 09:53 NNW 10 10 Clear CLR 59 45     60%     30.08 30.07      
Apr 23 08:53 NW 10 10 Clear CLR 54 46     74%     30.08 30.07      
Apr 23 07:53 NNW 9 10 Clear CLR 51 46     83%     30.08 30.08      
Apr 23 06:53 NNW 8 10 Mostly Cloudy BKN050 49 46     90% 45   30.07 30.07      
Apr 23 05:53 NNW 7 10 Cloudy SCT032 OVC045 49 47     93% 46   30.05 30.05      
Apr 23 04:53 NW 7 10 Partly Cloudy SCT029 48 46     93% 45   30.04 30.04      
Apr 23 03:53 NNW 10 10 Cloudy OVC024 50 46     86% 46   30.04 30.04      
Apr 23 03:20 NW 8 10 Cloudy BKN024 OVC065 50 46     86% 47   30.04        
Apr 23 02:53 NNW 8 10 Cloudy FEW022 SCT037 OVC070 51 46     83%     30.04 30.03      
Apr 23 01:53 NNW 6 10 Cloudy OVC034 51 46     83%     30.05 30.04      
Apr 23 00:53 NW 11 10 Cloudy OVC030 51 45     79%     30.06 30.06      
Apr 22 23:53 NNW 8 10 Cloudy OVC031 52 45     77%     30.06 30.06      
Apr 22 23:21 NNW 11 10 Cloudy OVC030 52 44     74%     30.07        
Apr 22 23:09 NNW 9 10 Cloudy OVC029 52 44     74%     30.07        
Apr 22 22:53 NW 11 10 Cloudy OVC030 52 44     74%     30.07 30.06      
Apr 22 22:22 NNW 13 10 Cloudy OVC030 52 45     77%     30.07        
Apr 22 21:53 NW 11 10 Cloudy OVC029 53 45     74%     30.07 30.06      
Apr 22 20:53 NNW 11 10 Cloudy OVC033 53 44     71%     30.05 30.05      
Apr 22 19:53 NNW 13 10 Cloudy BKN030 OVC039 55 46     72%     30.03 30.03      
Apr 22 19:48 NNW 14 10 Cloudy BKN028 OVC039 55 46     72%     30.03        
Apr 22 18:53 NNW 15 10 Cloudy OVC039 57 47     69%     30.01 30      
Apr 22 17:53 NW 13 10 Cloudy OVC040 61 49     64%     29.99 29.98      
Apr 22 16:53 NW 10 10 Cloudy BKN038 OVC110 61 49     64%     29.98 29.97      
Apr 22 15:53 NW 14 10 Cloudy BKN035 OVC120 62 49     62%     29.97 29.96      
Apr 22 14:53 NW 16 10 Mostly Cloudy BKN032 BKN110 64 51     63%     29.96 29.95      
Apr 22 13:53 NW 16 10 Mostly Cloudy FEW028 BKN120 63 50     63%     29.96 29.95      
Apr 22 13:42 NW 18 10 Mostly Cloudy FEW028 BKN120 63 52     67%     29.96        
Apr 22 12:53 NNW 13 10 Mostly Cloudy BKN024 63 53     70%     29.96 29.95     0
Apr 22 11:53 NW 16 10 Cloudy OVC015 59 53     81%     29.97 29.96      
Apr 22 11:31 NW 11 10 Cloudy OVC015 59 53     81%     29.97        
Apr 22 10:53 WNW 11 10 Cloudy OVC012 57 53     87%     29.96 29.95      
Apr 22 09:53 NW 11 10 Cloudy OVC009 56 54     93%     29.93 29.92   0  
Apr 22 09:14 NW 17 10 Cloudy OVC010 57 55     93%     29.92        
Apr 22 08:53 NW 15 9 Cloudy OVC008 57 56     96%     29.92 29.91      
Apr 22 07:53 WNW 17 5 Fog/Mist OVC006 60 59     96%     29.89 29.88 0    
Apr 22 06:53 WNW 10 9 Light Rain OVC005 62 61     96%     29.85 29.84 0   0
Apr 22 06:50 W 13 10 Cloudy OVC005 63 61     94%     29.86   0    
Apr 22 06:08 WNW 10 8 Cloudy OVC004 63 63     100%     29.83   0    
Apr 22 05:55 WNW 15 9 Light Rain BKN005 OVC009 65 65     100%     29.82   0    
Apr 22 05:48 WNW 13 2.5 Light Rain and Fog/Mist BKN005 OVC016 65 65     100%     29.82 29.8 0    
Apr 22 05:47 WNW 13 2.5 Light Rain and Fog/Mist BKN005 OVC010 64 64     100%     29.82   0    
Apr 22 05:32 WNW 9 8 Thunderstorms and Rain BKN006 BKN010 OVC019 67 67     100%     29.82   0    
Apr 22 04:53 WNW 7 8 Light Rain BKN008 BKN016 OVC021 68 67     96%     29.81 29.79 0    
Apr 22 04:49 WNW 9 9 Light Rain BKN008 BKN016 OVC021 68 66     94%     29.81   0    
Apr 22 04:36 WNW 7 10 Cloudy FEW008 OVC021 69 68     96%     29.81        
Apr 22 04:18 W 6 10 Cloudy BKN023 BKN028 OVC039 69 68     96%     29.8        
Apr 22 03:53 W 7 10 Cloudy BKN050 OVC055 70 68     93%     29.8 29.79 0 0  
Apr 22 03:19 WNW 9 10 Cloudy SCT019 BKN033 OVC110 69 67     93%     29.8   0    
Apr 22 02:53 W 13 10 Light Rain BKN020 BKN027 OVC035 73 69     87%   74 29.79 29.78 0    
Apr 22 02:33 SW 16 10 Cloudy OVC022 72 68     87%   73 29.78   0    
Apr 22 02:17 SW 9 10 Thunderstorms and Rain BKN022 BKN060 OVC070 72 68     87%   73 29.79   0    
Apr 22 02:10 SW 11 10 Thunderstorms and Rain SCT023 BKN041 OVC070 72 68     87%   73 29.78   0    
Apr 22 01:53 SSW 17 10 Light Rain BKN060 73 68     84%   74 29.77 29.76 0    
Apr 22 01:21 SSW 13 10 Clear CLR 73 67     81%   74 29.76        
Apr 22 01:06 SSW 15 10 Thunderstorms CLR 74 68     82%   75 29.77        
Apr 22 00:53 SSW 10 10 Clear CLR 74 68     82%   75 29.77 29.75      
Apr 21 23:53 S 11 10 Clear CLR 75 67     76%   76 29.77 29.75      
Apr 21 22:53 S 13 10 Mostly Cloudy BKN065 BKN075 75 67     76%   76 29.77 29.75      
Apr 21 21:53 SSE 9 10 Mostly Clear FEW070 75 67     76%   76 29.78 29.76      
Apr 21 20:53 SSE 7 10 Clear CLR 73 68     84%   74 29.77 29.75      
Apr 21 19:53 SE 3 10 Mostly Cloudy SCT045 BKN055 BKN065 75 67     76%   76 29.78 29.77      
Apr 21 18:53 S 5 10 Clear CLR 79 66     65%   80 29.76 29.75      
Apr 21 17:53 S 10 10 Clear CLR 81 66     61%   83 29.77 29.76      
Apr 21 16:53 SSW 8 10 Partly Cloudy SCT090 81 66     61%   83 29.79 29.78      
Apr 21 15:53 SW 10 10 Partly Cloudy FEW048 SCT075 SCT090 82 65     56%   84 29.82 29.81      
Apr 21 14:53 SSW 8 10 Mostly Cloudy BKN042 BKN050 BKN065 79 64     60%   79 29.86 29.84      
Apr 21 13:53 S 13 10 Partly Cloudy FEW044 SCT060 80 66     62%   82 29.88 29.86      
Apr 21 12:53 S 15 10 Mostly Cloudy BKN035 BKN048 77 65     66%   78 29.9 29.88      
Apr 21 11:53 S 13 10 Mostly Cloudy FEW028 BKN033 77 65     66%   78 29.91 29.9      
Apr 21 11:18 S 11 10 Mostly Clear FEW023 75 66     74%   76 29.93        
Apr 21 10:53 S 10 10 Mostly Cloudy BKN021 75 66     74%   76 29.93 29.92      
Apr 21 09:53 SSW 9 10 Cloudy SCT013 OVC019 71 67     87%   72 29.95 29.93      
Apr 21 09:49 SSW 7 10 Cloudy OVC017 72 66     83%   72 29.95        
Apr 21 09:13 S 8 10 Cloudy BKN012 OVC017 69 66     90%     29.95        
Apr 21 08:59 SSW 9 10 Mostly Cloudy SCT009 BKN016 69 66     90%     29.95        
Apr 21 08:53 S 9 10 Mostly Cloudy BKN009 BKN014 70 67     90%     29.94 29.93      
Apr 21 07:53 SSW 13 10 Cloudy OVC007 67 66     97%     29.94 29.93      
Apr 21 06:53 S 13 7 Mostly Cloudy BKN006 67 67     100%     29.92 29.91      
Apr 21 06:46 S 11 7 Mostly Cloudy BKN006 67 67     100%     29.92        
Apr 21 06:36 S 10 8 Partly Cloudy SCT006 67 66     97%     29.92        
Apr 21 05:53 S 9 9 Clear CLR 67 66     97%     29.93 29.91      
Apr 21 04:53 SSW 9 10 Clear CLR 67 66     97%     29.94 29.93      
Apr 21 03:53 S 11 10 Clear CLR 69 66     90%     29.95 29.93      
Apr 21 02:53 S 8 10 Clear CLR 69 65     87%     29.96 29.94      
Apr 21 01:53 S 5 10 Clear CLR 67 64     90%     29.97 29.96      
Apr 21 00:53 SE 6 10 Clear CLR 68 64     87%     29.97 29.96      
Apr 20 23:53 ESE 6 10 Clear CLR 70 65     84%     29.98 29.96      
Apr 20 22:53 SE 5 10 Clear CLR 70 64     81%     29.99 29.98      
Apr 20 21:53 SSE 6 10 Clear CLR 70 65     84%     29.99 29.98      
Apr 20 20:53 SSE 5 10 Clear CLR 72 65     79%   73 29.98 29.97      
Apr 20 19:53 Calm 10 Clear CLR 74 66     76%   75 29.97 29.96      
Apr 20 18:53 S 6 10 Clear CLR 79 65     62%   80 29.98 29.96      
Apr 20 17:53 SSE 8 10 Clear CLR 80 66     62%   82 29.99 29.98      
Apr 20 16:53 S 8 10 Mostly Clear FEW042 80 67     64%   82 30 29.98      
Apr 20 15:53 SSE 7 10 Mostly Cloudy FEW038 SCT045 BKN085 79 67     67%   80 30.02 30      
Apr 19 15:53 S 8 10 Clear CLR 80 64     58%   82 30.06 30.04      
Apr 19 14:53 S 13 10 Mostly Clear FEW044 81 64     56%   83 30.07 30.06      
Apr 19 13:53 SSE 10 10 Mostly Cloudy BKN036 BKN044 78 65     64%   79 30.08 30.07      
Apr 19 12:53 SSE 10 10 Clear CLR 78 65     64%   79 30.1 30.09      
Apr 19 11:53 S 6 10 Partly Cloudy SCT029 77 65     66%   78 30.12 30.11      
Apr 19 11:15 SSW 9 10 Mostly Cloudy SCT022 SCT027 BKN035 74 66     76%   75 30.14        
Apr 19 10:53 S 8 10 Mostly Cloudy SCT020 BKN026 75 66     74%   76 30.13 30.12      
Apr 19 10:41 S 11 10 Mostly Cloudy BKN020 BKN026 74 66     76%   75 30.13        
Apr 19 09:53 S 11 10 Mostly Clear FEW018 72 66     82%   73 30.12 30.11      
Apr 19 09:09 SSE 10 10 Clear CLR 70 66     87%     30.12        
Apr 19 08:53 SSE 9 10 Clear CLR 69 66     90%     30.12 30.1      
Apr 19 07:53 ESE 5 10 Clear CLR 64 64     100%     30.11 30.09      
Apr 19 06:53 ESE 5 7 Clear CLR 61 61     100%     30.1 30.09      
Apr 19 05:53 SE 7 10 Clear CLR 62 62     100%     30.09 30.08      
Apr 19 04:53 ESE 5 7 Clear CLR 62 62     100%     30.08 30.07      
Apr 19 03:53 ESE 5 10 Clear CLR 62 62     100%     30.07 30.06      
Apr 19 02:53 Calm 8 Clear CLR 60 60     100%     30.07 30.05      
Apr 19 01:53 Calm 10 Clear CLR 62 61     96%     30.08 30.06      
Apr 19 00:53 E 3 10 Clear CLR 61 61     100%     30.09 30.07      
Apr 18 22:53 ESE 3 10 Clear CLR 65 62     90%     30.09 30.08      
Apr 18 21:53 S 5 10 Clear CLR 67 62     84%     30.08 30.07      
Apr 18 20:53 SSW 6 10 Clear CLR 69 62     78%     30.06 30.05      
Apr 18 19:53 SSW 14 10 Clear CLR 72 61     68%   72 30.05 30.04      
Apr 18 18:53 3 10 Mostly Clear FEW045 78 65     64%   79 30.03 30.02      
Apr 18 18:25 Calm 10 Partly Cloudy SCT044 78 66     67%   79 30.04        
Apr 18 18:16 NNW 5 10 Partly Cloudy SCT044 78 66     67%   79 30.03        
Apr 18 17:53 S 3 10 Clear CLR 79 63     58%   79 30.03 30.02      
Apr 18 17:41 S 3 10 Thunderstorms CLR 79 63     58%   79 30.03        
Apr 18 17:28 SSW 6 10 Clear CLR 80 64     58%   82 30.02        
Apr 18 16:53 SSE 5 10 Partly Cloudy SCT044 SCT060 79 65     62%   80 30.02 30.01      
Apr 18 15:53 Calm 10 Mostly Clear FEW038 79 65     62%   80 30.03 30.01      
Apr 18 14:53 3 10 Partly Cloudy FEW040 SCT050 79 66     65%   80 30.04 30.03      
Apr 18 13:53 S 7 10 Mostly Cloudy BKN038 78 66     67%   79 30.04 30.03      
Apr 18 13:23 SSW 7 10 Partly Cloudy SCT032 79 67     67%   80 30.05        
Apr 18 12:53 SSE 9 10 Partly Cloudy SCT030 78 66     67%   79 30.06 30.04      
Apr 18 12:32 SE 9 10 Mostly Clear FEW028 77 67     71%   78 30.06        
Apr 18 11:53 S 5 10 Partly Cloudy SCT019 75 67     76%   76 30.07 30.06      
Apr 18 10:53 SSE 5 10 Partly Cloudy SCT014 72 67     84%   73 30.07 30.06      
Apr 18 09:53 SSE 5 10 Cloudy FEW009 OVC100 69 66     90%     30.07 30.06      
Apr 18 09:33 Calm 10 Cloudy FEW005 OVC100 67 65     93%     30.07        
Apr 18 08:53 NE 3 9 Cloudy BKN002 OVC100 63 63     100%     30.07 30.06      
Apr 18 08:32 ENE 5 3 Fog/Mist OVC002 62 62     100%     30.06        
Apr 18 08:28 5 1.5 Fog/Mist OVC002 62 62     100%     30.06        
Apr 18 08:22 ESE 6 0.75 Fog/Mist OVC002 61 61     100%     30.06        
Apr 18 08:10 ESE 5 0.25 Fog VV002 61 61     100%     30.06        
Apr 18 07:53 E 5 0.5 Fog OVC002 61 61     100%     30.06 30.05      
Apr 18 07:50 ENE 6 0.75 Fog/Mist OVC002 61 61     100%     30.06        
Apr 18 07:44 ENE 5 1.75 Fog/Mist OVC002 61 61     100%     30.06        
Apr 18 07:07 NE 5 4 Fog/Mist BKN002 59 59     100%     30.05        
Apr 18 06:53 NE 5 5 Fog/Mist SCT002 59 59     100%     30.04 30.03      
Apr 18 06:31 Calm 2.5 Fog/Mist SCT002 59 59     100%     30.04        
Apr 18 05:53 ENE 3 5 Fog/Mist CLR 59 59     100%     30.03 30.02      
Apr 18 04:53 ENE 5 9 Clear CLR 59 59     100%     30.03 30.02      
Apr 18 03:53 ENE 3 10 Clear CLR 60 60     100%     30.04 30.03      
Apr 18 02:53 ENE 5 10 Clear CLR 61 61     100%     30.02 30.01      
Apr 18 01:53 ENE 3 10 Clear CLR 61 60     97%     30.03 30.02      
Apr 18 00:53 ENE 3 10 Clear CLR 60 60     100%     30.03 30.03      
Apr 17 23:53 NE 5 10 Clear   62 61     96%     30.03 30.02      
Apr 17 22:53 E 3 10 Clear CLR 61 60     97%     30.05 30.03      
Apr 17 21:53 E 3 10 Clear CLR 63 62     97%     30.04 30.03      
Apr 17 20:54 N 5 10 Clear CLR 65 62     90%     30.02        
Apr 17 20:53 N 5 10 Clear CLR 65 62     90%     30.02 30.01      
Apr 17 19:53 NE 5 10 Clear CLR 66 63     90%     30 29.99      
Apr 17 18:53 NNE 7 10 Clear CLR 71 62     73%   71 30 29.99     0
Apr 17 17:53 NNW 9 10 Clear CLR 73 62     68%   73 30 29.98      
Apr 17 16:53 N 8 10 Partly Cloudy SCT037 75 61     62%   75 29.97 29.96      
Apr 17 15:53 S 13 10 Clear CLR 73 61     66%   73 29.96 29.95   0  
Apr 17 14:53 5 10 Mostly Cloudy BKN090 69 63     81%     30.02 30.01      
Apr 17 13:53 Calm 10 Cloudy OVC075 65 61     87%     30.09 30.08 0    
Apr 17 12:53 NNW 9 10 Mostly Cloudy BKN049 68 61     78%     30.13 30.12     0
Apr 17 11:53 NNE 7 10 Cloudy OVC047 66 62     87%     30.14 30.13      
Apr 17 10:53 N 7 10 Cloudy SCT048 OVC060 64 62     93%     30.14 30.13 0    
Apr 17 10:11 WNW 8 10 Cloudy FEW007 BKN035 OVC050 63 63     100%     30.13        
Apr 17 09:53 NE 5 10 Cloudy BKN045 OVC050 64 63     96%     30.11 30.1 0 0  
Apr 17 09:11 NNE 9 7 Light Rain SCT035 SCT041 OVC050 63 62     97%     30.1   0    
Apr 17 09:03 NNE 13 2 Rain and Fog/Mist BKN033 BKN050 OVC060 63 61     93%     30.1   0    
Apr 17 08:53   7 Light Rain FEW025 OVC033 64 62     93%     30.1 30.09 0    
Apr 17 08:50 N 11 6 Light Rain and Fog/Mist SCT025 OVC033 64 63     94%     30.1   0    
Apr 17 08:38 N 13 10 Light Rain FEW011 BKN024 OVC030 65 63     93%     30.09   0    
Apr 17 08:31 NNE 14 10 Light Rain FEW009 OVC024 65 63     93%     30.08   0    
Apr 17 08:21 NNE 13 10 Cloudy FEW009 BKN023 OVC037 66 63     90%     30.08        
Apr 17 08:12 NNW 15 7 Cloudy FEW009 BKN023 OVC035 67 66     97%     30.08        
Apr 17 07:53 SW 5 7 Cloudy FEW024 BKN033 OVC049 68 67     96%     30.07 30.06 0    
Apr 17 07:34 SW 6 4 Rain and Fog/Mist FEW029 BKN046 OVC055 68 67     96%     30.06   0    
Apr 17 07:09 SSW 6 8 Thunderstorms BKN041 OVC049 68 67     96%     30.06        
Apr 17 06:53 SW 5 8 Mostly Cloudy BKN041 BKN049 BKN060 67 67     100%     30.05 30.03     0
Apr 17 05:53 SSW 8 10 Mostly Cloudy FEW047 BKN100 68 67     96%     30.04 30.03      
Apr 17 04:53 SSE 9 10 Mostly Cloudy BKN033 BKN100 68 67     96%     30.03 30.02 0    
Apr 17 04:29 SSE 8 9 Clear   68 67     96%     30.03   0    
Apr 17 04:14 SE 7 10 Clear   68 66     93%     30.04        
Apr 17 03:53 S 6 10 Clear   69 66     90%     30.05 30.03      
Apr 17 02:53 SW 6 10 Cloudy OVC055 68 66     93%     30.05 30.04      
Apr 17 01:53 SSW 9 10 Clear CLR 69 66     90%     30.02 30.01      
Apr 17 00:53 S 7 10 Clear CLR 70 65     84%     30.02 30      
Apr 16 23:53 S 8 10 Clear CLR 71 64     79%   72 30.02 30      
Apr 16 22:53 SE 6 10 Clear CLR 69 64     84%     30.02 30.01      
Apr 16 21:53 SE 3 10 Clear CLR 71 63     76%   71 30.04 30.03      
Apr 16 20:53 ESE 5 10 Clear CLR 72 64     76%   72 30.04 30.03      
Apr 16 19:53 SE 3 10 Clear CLR 73 65     76%   74 30.03 30.02      
Apr 16 18:53 SW 6 10 Clear CLR 78 64     62%   79 30.03 30.01      
Apr 16 17:53 S 8 10 Clear CLR 80 62     54%   81 30.02 30.01      
Apr 16 16:53 S 9 10 Partly Cloudy SCT055 80 62     54%   81 30.02 30.01      
Apr 16 15:53 S 5 10 Partly Cloudy SCT047 80 62     54%   81 30.05 30.03      
Apr 16 14:54 SSE 10 10 Clear CLR 80 62     54%   81 30.07        
Apr 16 14:53 SSE 11 10 Clear CLR 80 62     54%   81 30.07 30.06      
Apr 16 13:53 SW 7 10 Mostly Cloudy BKN060 78 62     58%   78 30.13 30.11      
Apr 16 12:53 SSW 10 10 Mostly Cloudy FEW036 FEW047 BKN090 77 63     62%   77 30.14 30.12      
Apr 16 11:53 6 10 Partly Cloudy FEW027 SCT035 75 64     69%   75 30.14 30.13      
Apr 16 11:09 S 8 10 Mostly Cloudy SCT022 BKN032 73 64     73%   73 30.12        
Apr 16 10:40   10 Mostly Cloudy BKN018 BKN024 73 65     76%   74 30.12        
Apr 09 00:53 S 10 10 Clear CLR 66 52     61%     29.92 29.91      
Apr 08 23:53 S 13 10 Clear CLR 67 53     61%     29.92 29.91      
Apr 08 22:53 S 9 10 Clear CLR 68 53     59%     29.92 29.91      
Apr 08 21:53 S 14 10 Clear CLR 69 54     59%     29.92 29.91      
Apr 08 20:53 SSE 9 10 Clear CLR 69 53     57%     29.91 29.9      
Apr 08 19:53 SSE 9 10 Clear CLR 71 52     51%   70 29.9 29.89      
Apr 08 18:53 S 13 10 Clear CLR 75 51     43%   74 29.91 29.9      
Apr 08 17:53 S 10 10 Clear CLR 77 51     40%   76 29.92 29.91      
Apr 08 16:53 SSW 18 10 Clear CLR 79 49     35%   78 29.93 29.92      
Apr 08 15:53 SSW 15 10 Clear CLR 78 50     37%   77 29.95 29.94      
Apr 08 14:53 S 18 10 Clear CLR 78 50     37%   77 29.98 29.96      
Apr 08 13:53 SSW 16 10 Clear CLR 77 49     37%   76 30.01 30      
Apr 08 12:53 SSW 14 10 Clear CLR 76 50     40%   75 30.03 30.02      
Apr 08 11:53 S 13 10 Clear CLR 73 54     51%   72 30.06 30.05      
Apr 08 10:53 SSW 13 10 Clear CLR 70 56     61%     30.07 30.06      
Apr 08 09:53 SW 11 10 Clear CLR 65 54     68%     30.07 30.06      
Apr 08 08:53 S 8 10 Clear CLR 60 51     72%     30.07 30.06      
Apr 08 07:53 S 7 10 Clear CLR 56 49     77%     30.07 30.06      
Apr 08 06:53 S 7 10 Clear CLR 54 47     77%     30.06 30.05      
Apr 08 05:53 S 7 10 Clear CLR 55 47     74%     30.05 30.04      
Apr 08 04:53 S 9 10 Clear CLR 56 45     67%     30.04 30.03      
Apr 08 03:53 S 10 10 Clear CLR 58 44     60%     30.06 30.05      
Apr 08 02:53 S 11 10 Clear CLR 59 43     55%     30.06 30.05      
Apr 08 01:53 S 10 10 Clear CLR 60 43     53%     30.08 30.06      
Apr 08 00:53 S 9 10 Clear CLR 60 44     55%     30.09 30.08      
Apr 07 23:53 SSE 7 10 Clear CLR 56 45     67%     30.1 30.09      
Apr 07 22:53 SE 6 10 Clear CLR 58 45     62%     30.11 30.1      
Apr 07 21:53 SE 6 10 Clear CLR 60 45     57%     30.11 30.1      
Apr 07 20:53 SE 6 10 Clear CLR 62 44     52%     30.11 30.1      
Apr 07 19:53 SE 5 10 Clear CLR 61 45     56%     30.11 30.1      
Apr 07 19:08 SW 5 10 Mostly Clear FEW002 69 43     39%     30.11        
Apr 07 18:53 SW 3 10 Clear CLR 70 41     35%     30.11 30.1      
Apr 07 17:53 SSW 9 10 Clear CLR 70 42     36%     30.11 30.11      
Apr 07 16:53 5 10 Clear CLR 71 40     32%   69 30.14 30.13      
Apr 07 15:53 6 10 Clear CLR 71 39     31%   69 30.17 30.16      
Apr 07 14:53 Calm 9 Clear CLR 69 38     32%     30.2 30.19      
Apr 07 13:53 3 10 Clear CLR 69 37     31%     30.23 30.22      
Apr 07 12:53 3 10 Clear CLR 66 38     36%     30.25 30.24      
Apr 07 11:53 6 10 Clear CLR 63 35     35%     30.27 30.27      
Apr 07 10:53 5 10 Clear CLR 61 35     38%     30.29 30.29      
Apr 07 09:53 NE 7 10 Clear CLR 59 35     41%     30.29 30.28      
Apr 07 08:53 Calm 10 Clear CLR 54 38     55%     30.29 30.29      
Apr 07 07:53 Calm 10 Clear CLR 47 44     90%     30.28 30.27      
Apr 07 06:53 SW 3 10 Clear CLR 42 38     85% 40   30.26 30.25      
Apr 07 05:53 NE 5 10 Clear CLR 43 38     82% 40   30.23 30.23      
Apr 07 04:53 Calm 10 Clear CLR 45 38     76%     30.22 30.22      
Apr 07 03:53 NE 5 10 Clear CLR 44 39     82% 41   30.22 30.22      
Apr 07 02:53 NE 3 10 Clear CLR 47 38     71% 46   30.22 30.21      
Apr 07 01:53 N 3 10 Clear CLR 49 37     63% 48   30.22 30.22      
Apr 07 00:53 N 3 10 Clear CLR 51 37     59%     30.23 30.22      
Apr 06 23:53 Calm 10 Clear CLR 52 38     59%     30.22 30.21      
Apr 06 22:53 N 3 10 Clear CLR 54 36     50%     30.21 30.2      
Apr 06 21:53 N 5 10 Clear CLR 60 33     36%     30.2 30.19      
Apr 06 20:53 N 5 10 Clear CLR 61 33     35%     30.17 30.16      
Apr 06 19:53 N 3 10 Clear CLR 64 34     33%     30.16 30.15      
Apr 06 18:53 NNW 6 10 Clear CLR 68 34     28%     30.14 30.14      
Apr 06 17:53 NW 10 10 Mostly Clear FEW090 70 34     26%     30.14 30.14      
Apr 06 16:53   10 Clear CLR 71 33     25%   69 30.14 30.14      
Apr 06 15:53 WNW 16 10 Clear CLR 70 34     26%     30.16 30.15      
Apr 06 14:53 NW 9 10 Clear CLR 70 37     30%     30.18 30.17      
Apr 06 13:53 WNW 13 10 Clear CLR 68 38     33%     30.2 30.19      
Apr 06 12:53 NW 10 10 Clear CLR 66 36     33%     30.22 30.21      
Apr 06 11:53 7 10 Clear CLR 65 37     36%     30.23 30.22      
Apr 06 10:53 NW 8 10 Clear CLR 62 42     48%     30.24 30.24      
Apr 06 09:53 NNW 8 10 Clear CLR 57 42     57%     30.23 30.22      
Apr 06 08:53 NW 7 10 Clear CLR 53 41     63%     30.21 30.21      
Apr 06 07:53 NW 6 10 Clear CLR 49 40     71% 46   30.19 30.19      
Apr 06 06:53 WNW 3 10 Clear CLR 47 38     71% 46   30.15 30.15      
Apr 06 05:53 WSW 5 10 Clear CLR 46 39     76% 44   30.13 30.12      
Apr 06 04:53 SW 6 10 Clear CLR 45 39     80% 42   30.1 30.09      
Apr 06 03:53 SW 6 10 Clear CLR 46 40     79% 43   30.08 30.07      
Apr 06 02:53 W 6 10 Clear CLR 51 39     63%     30.07 30.06      
Apr 06 01:53 W 8 10 Clear CLR 52 39     61%     30.07 30.06      
Apr 06 00:53 W 7 10 Clear CLR 52 40     63%     30.07 30.06      
Apr 05 23:53 W 6 10 Clear CLR 52 40     63%     30.07 30.06      
Apr 05 22:53 WNW 6 10 Clear CLR 53 40     61%     30.07 30.06      
Apr 05 21:53 N 8 10 Partly Cloudy SCT090 56 40     55%     30.06 30.05      
Apr 05 20:53 SW 3 10 Mostly Clear FEW090 56 40     55%     30.01 30.01      
Apr 05 19:53 WNW 7 10 Clear CLR 60 38     44%     30 29.99      
Apr 05 18:53 WNW 13 10 Clear CLR 63 37     38%     29.98 29.97      
Apr 05 17:53 WNW 15 10 Partly Cloudy SCT075 65 36     34%     29.97 29.96      
Apr 05 16:53 WNW 20 10 Partly Cloudy and Windy SCT070 64 38     38%     29.95 29.95      
Apr 05 15:53 WNW 22 10 Cloudy and Windy OVC065 62 40     44%     29.95 29.94      
Apr 05 14:53 WNW 23 10 Mostly Cloudy and Windy BKN046 BKN055 61 42     50%     29.94 29.93      
Apr 05 13:53   10 Cloudy BKN041 OVC049 59 42     53%     29.94 29.93      
Apr 05 12:53   10 Cloudy BKN038 OVC046 57 43     59%     29.92 29.91      
Apr 05 11:53 W 17 10 Cloudy OVC035 55 43     64%     29.9 29.89      
Apr 05 10:53 WNW 15 10 Cloudy OVC031 54 43     66%     29.88 29.87      
Apr 05 09:53 W 17 10 Cloudy OVC031 53 44     71%     29.85 29.84      
Apr 05 09:18 W 15 10 Cloudy OVC029 52 43     71%     29.84        
Apr 05 08:53 WSW 15 10 Cloudy OVC031 52 44     74%     29.83 29.82      
Apr 05 08:36 W 15 10 Cloudy OVC030 52 43     71%     29.83        
Apr 05 07:53 W 14 10 Cloudy OVC028 51 43     74%     29.81 29.8      
Apr 05 07:32 W 16 10 Mostly Cloudy BKN028 51 43     74%     29.81        
Apr 05 06:53 W 15 10 Mostly Clear FEW027 51 44     77%     29.79 29.78     0
Apr 05 05:53 W 17 10 Clear CLR 52 46     80%     29.76 29.75      
Apr 05 04:53 W 13 10 Clear   57 53     87%     29.72 29.71      
Apr 05 03:53 W 13 10 Clear CLR 59 57     93%     29.7 29.68   0  
Apr 05 02:53 Calm 10 Cloudy BKN050 OVC060 60 57     90%     29.69 29.67 0    
Apr 05 02:01 N 5 10 Mostly Cloudy FEW027 BKN065 BKN080 61 57     87%     29.69   0    
Apr 05 01:53 N 6 6 Thunderstorms and Rain FEW027 BKN065 BKN090 61 56     83%     29.69 29.67 0    
Apr 05 01:36 NNW 13 10 Thunderstorms and Rain BKN070 BKN095 65 55     70%     29.71   0    
Apr 05 01:27 NNW 7 10 Mostly Cloudy BKN075 BKN100 66 54     65%     29.69        
Apr 05 01:12 WNW 13 10 Mostly Cloudy BKN075 BKN090 69 54     59%     29.69        
Apr 05 00:53 W 11 10 Mostly Cloudy SCT080 BKN110 70 53     55%     29.67 29.65 0   0
Apr 05 00:46 WSW 8 10 Light Rain SCT080 BKN110 70 54     57%     29.66   0    
Apr 05 00:27 WNW 13 10 Mostly Cloudy BKN080 71 53     53%   70 29.67        
Apr 04 23:53 S 11 10 Partly Cloudy SCT090 72 50     46%   71 29.63 29.62      
Apr 04 22:53 S 14 10 Clear CLR 72 54     53%   71 29.63 29.62      
Apr 04 21:53 S 10 10 Mostly Cloudy BKN100 74 55     52%   73 29.63 29.62      
Apr 04 20:53 SSE 9 10 Clear CLR 74 57     56%   74 29.62 29.6      
Apr 04 19:53 SSE 9 10 Clear CLR 73 57     57%   73 29.62 29.61      
Apr 04 18:53 SSE 9 10 Mostly Clear FEW001 79 55     44%   79 29.63 29.62      
Apr 04 17:53 S 15 10 Clear CLR 81 54     39%   81 29.63 29.62      
Apr 04 16:53 S 15 10 Mostly Clear FEW080 84 54     36%   83 29.65 29.63      
Apr 04 15:53 S 17 10 Clear CLR 83 55     38%   82 29.65 29.64      
Apr 04 14:53 S 11 10 Clear CLR 83 55     38%   82 29.68 29.66      
Apr 04 13:53 S 13 10 Clear CLR 82 55     40%   81 29.7 29.68      
Apr 04 12:53 S 10 10 Clear CLR 80 56     44%   80 29.73 29.72      
Apr 04 11:53 SSE 8 10 Clear CLR 77 55     47%   77 29.75 29.74      
Apr 04 10:54 7 10 Clear CLR 75 56     52%   75 29.77        
Apr 04 10:53 S 8 10 Clear CLR 75 56     52%   75 29.77 29.75      
Apr 04 08:53 ESE 6 10 Clear CLR 65 56     73%     29.75 29.74      
Apr 04 07:53 SE 8 10 Clear CLR 61 55     81%     29.75 29.74      
Apr 04 06:53 SE 7 10 Clear CLR 60 53     78%     29.75 29.73      
Apr 04 05:53 SE 7 10 Clear CLR 57 53     87%     29.75 29.74      
Apr 04 04:53 SE 5 10 Clear CLR 57 53     87%     29.74 29.72      
Apr 04 03:53 SE 8 10 Clear CLR 58 54     87%     29.73 29.72      
Apr 04 02:53 Calm 10 Clear CLR 55 53     93%     29.74 29.73      
Apr 04 01:53 Calm 10 Clear CLR 55 54     96%     29.74 29.73      
Apr 04 00:53 Calm 10 Clear CLR 57 54     89%     29.74 29.73      
Apr 03 23:53 Calm 10 Clear CLR 58 54     87%     29.75 29.74      
Apr 03 22:53 Calm 10 Clear CLR 59 54     83%     29.74 29.73      
Apr 03 21:53 S 3 10 Clear CLR 63 53     70%     29.72 29.72      
Apr 03 20:53 Calm 10 Clear CLR 66 53     63%     29.7 29.69      
Apr 03 19:53 W 5 10 Clear CLR 71 52     51%   70 29.69 29.67      
Apr 03 18:53 WSW 10 10 Clear CLR 74 52     46%   73 29.66 29.65      
Apr 03 17:53 SW 13 10 Clear CLR 75 54     48%   74 29.65 29.63      
Apr 03 16:53 SW 14 10 Clear CLR 75 53     46%   74 29.65 29.63      
Apr 03 15:53 WSW 15 10 Clear CLR 75 54     48%   74 29.66 29.64      
Apr 03 14:53 WSW 17 10 Clear CLR 74 53     48%   73 29.66 29.65      
Apr 03 13:53 SW 13 10 Mostly Clear FEW045 72 54     53%   71 29.67 29.66      
Apr 03 12:53 SW 9 10 Mostly Clear FEW036 69 55     61%     29.68 29.67     0
Apr 03 11:53 WSW 14 10 Partly Cloudy SCT024 67 57     71%     29.7 29.69      
Apr 03 11:26 SW 10 10 Mostly Cloudy BKN025 65 56     73%     29.7        
Apr 03 10:53 SW 9 10 Clear CLR 64 56     75%     29.68 29.67      
Apr 03 10:22 WSW 11 10 Clear   63 56     78%     29.69        
Apr 03 09:53 WSW 11 10 Clear   62 56     80%     29.68 29.67 0 0  
Apr 03 09:00 W 14 10 Cloudy SCT013 BKN019 OVC037 59 55     87%     29.68   0    
Apr 03 08:53   10 Light Rain BKN013 BKN019 OVC037 59 56     90%     29.68 29.67 0    
Apr 03 08:45   8 Light Rain BKN013 OVC020 59 57     93%     29.67   0    
Apr 03 08:09 W 15 10 Cloudy FEW008 BKN020 OVC025 60 58     93%     29.66   0    
Apr 03 07:53 WSW 7 9 Cloudy FEW008 BKN013 OVC032 60 59     96%     29.65 29.64      
Apr 03 07:20 SW 8 10 Cloudy FEW008 OVC029 60 59     96%     29.64        
Apr 03 07:06 SSW 7 10 Cloudy OVC030 59 58     96%     29.62        
Apr 03 06:53 SSW 9 10 Cloudy OVC029 59 58     96%     29.62 29.61     0
Apr 03 05:53 WSW 10 10 Cloudy FEW006 BKN017 OVC024 60 59     96%     29.6 29.59      
Apr 03 05:50 WSW 11 10 Cloudy FEW006 SCT017 OVC024 61 59     94%     29.6        
Apr 03 05:29 SW 9 10 Cloudy BKN008 OVC011 59 59     100%     29.6        
Apr 03 05:22 SW 10 10 Cloudy SCT008 OVC011 59 59     100%     29.61        
Apr 03 04:53 S 9 10 Cloudy OVC014 60 59     96%     29.62 29.61      
Apr 03 03:53 S 8 10 Cloudy FEW005 BKN012 OVC017 59 59     100%     29.62 29.61 0 0  
Apr 03 03:39 SSW 7 10 Cloudy BKN005 BKN008 OVC012 59 59     100%     29.62   0    
Apr 03 03:03 SSW 8 6 Fog/Mist OVC002 59 59     100%     29.61        
Apr 03 02:53 SSW 8 2 Fog/Mist OVC002 59 59     100%     29.62 29.61      
Apr 03 02:45 SSW 8 1.25 Fog/Mist OVC002 59 59     100%     29.63        
Apr 03 02:01 SSW 5 0.75 Fog/Mist VV002 58 58     100%     29.62        
Apr 03 01:53 SSE 6 1 Fog/Mist OVC002 58 58     100%     29.62 29.61      
Apr 03 01:51 S 5 1 Fog/Mist OVC002 57 57     100%     29.62        
Apr 03 01:42 S 5 1.75 Fog/Mist OVC003 58 58     100%     29.63        
Apr 03 00:53 Calm 9 Cloudy OVC004 59 59     100%     29.63 29.62      
Apr 03 00:33 Calm 7 Cloudy OVC003 58 58     100%     29.63        
Apr 02 23:53 Calm 3 Fog/Mist BKN005 OVC009 59 59     100%     29.63 29.62      
Apr 02 23:30 WNW 3 2 Fog/Mist OVC003 59 59     100%     29.64        
Apr 02 23:18 W 5 1.75 Fog/Mist OVC003 59 59     100%     29.66        
Apr 02 23:10 WSW 6 2 Fog/Mist OVC004 59 59     100%     29.66        
Apr 02 22:53 WSW 6 8 Cloudy OVC004 59 59     100%     29.67 29.66      
Apr 02 22:44 WSW 3 8 Cloudy OVC004 59 58     96%     29.66        
Apr 02 21:53 Calm 10 Cloudy OVC006 59 58     96%     29.68 29.67      
Apr 02 20:53 Calm 10 Cloudy OVC006 59 58     96%     29.66 29.65      
Apr 02 19:53 ESE 3 10 Cloudy OVC006 59 58     96%     29.63 29.62      
Apr 02 18:53 ESE 8 10 Cloudy OVC007 59 58     96%     29.66 29.65     1
Apr 02 17:53 ESE 8 10 Mostly Cloudy BKN009 59 58     96%     29.68 29.67      
Apr 02 16:53 E 8 10 Cloudy OVC006 59 59     100%     29.67 29.66 0    
Apr 02 16:13 ENE 10 10 Mostly Cloudy BKN009 BKN110 59 58     96%     29.64   0    
Apr 02 16:06 ENE 15 10 Mostly Cloudy SCT011 SCT046 BKN110 59 58     96%     29.63   0    
Apr 02 15:53 ENE 17 10 Light Rain SCT013 BKN047 OVC110 59 58     96%     29.65 29.64 0 1  
Apr 02 15:44 ENE 10 7 Thunderstorms and Rain FEW007 BKN047 OVC110 59 58     96%     29.72   0    
Apr 02 15:38 E 11 3 Thunderstorms and Rain and Fog/Mist SCT011 BKN026 OVC100 59 58     96%     29.73   0    
Apr 02 15:35 E 13 1.75 Thunderstorms and Rain and Fog/Mist BKN013 BKN050 OVC110 59 58     96%     29.73   0    
Apr 02 15:28   1.75 Heavy Rain and Fog/Mist BKN009 BKN050 OVC090 59 59     100%     29.76   0    
Apr 02 15:16 E 10 8 Light Rain FEW005 BKN070 OVC110 58 58     100%     29.74   0    
Apr 02 15:01 E 11 3 Rain and Fog/Mist FEW008 BKN070 OVC090 58 58     100%     29.74   0    
Apr 02 14:53 E 11 2.5 Rain and Fog/Mist FEW008 BKN070 OVC090 58 58     100%     29.76 29.75 0    
Apr 02 14:42 E 13 2.5 Rain and Fog/Mist FEW008 BKN046 OVC065 59 58     96%     29.76   0    
Apr 02 14:31 ENE 8 1.75 Heavy Rain and Fog/Mist SCT006 BKN046 OVC065 59 59     100%     29.8   0    
Apr 02 14:21 E 10 2.5 Heavy Rain and Fog/Mist SCT006 BKN047 OVC080 59 59     100%     29.79   0    
Apr 02 13:53 ENE 10 4 Thunderstorms and Rain and Fog/Mist FEW008 BKN090 OVC110 60 60     100%     29.76 29.75 0    
Apr 02 13:39 ENE 11 3 Rain and Fog/Mist FEW009 BKN075 OVC100 60 60     100%     29.78   0    
Apr 02 13:31 ENE 13 2 Thunderstorms and Heavy Rain and Fog/Mist FEW009 BKN048 OVC075 60 60     100%     29.79   0    
Apr 02 12:53 ENE 8 4 Thunderstorms and Rain and Fog/Mist BKN085 OVC100 60 59     96%     29.81 29.8 0   0
Apr 02 12:49 E 8 4 Thunderstorms and Rain and Fog/Mist BKN085 OVC100 61 59     94%     29.81   0    
Apr 02 12:35 ENE 9 4 Rain and Fog/Mist FEW065 BKN080 OVC100 60 59     96%     29.82   0    
Apr 02 12:13 ENE 8 3 Thunderstorms and Heavy Rain and Fog/Mist FEW022 BKN044 OVC095 60 59     96%     29.83   0    
Apr 02 12:01 E 5 2 Thunderstorms and Rain and Fog/Mist SCT024 BKN044 OVC070 60 60     100%     29.87   0    
Apr 02 11:53 W 5 1 Thunderstorms and Heavy Rain and Fog/Mist SCT024 BKN035 OVC045 60 60     100%     29.9   0    
Apr 02 11:48 SW 5 1.75 Thunderstorms and Heavy Rain and Fog/Mist BKN025 BKN029 OVC037 61 61     100%     29.91   0    
Apr 02 11:39 3 4 Light Rain and Fog/Mist BKN027 OVC039 61 59     93%     29.88   0    
Apr 02 11:31 ENE 6 2 Thunderstorms and Heavy Rain and Fog/Mist BKN027 OVC039 61 59     93%     29.88   0    
Apr 02 11:22 5 4 Thunderstorms and Heavy Rain and Fog/Mist BKN027 BKN050 OVC095 62 58     86%     29.88   0    
Apr 02 11:12 ESE 6 10 Mostly Cloudy BKN027 BKN095 63 57     81%     29.87        
Apr 02 10:53 E 6 10 Mostly Cloudy BKN100 63 57     81%     29.86 29.85      
Apr 02 09:53 E 6 10 Mostly Clear FEW120 63 56     78%     29.9 29.88      
Apr 02 08:53 E 9 10 Mostly Cloudy BKN050 60 55     83%     29.91 29.9      
Apr 02 07:53 E 8 10 Clear CLR 58 54     87%     29.93 29.92      
Apr 02 06:53 ENE 8 10 Clear CLR 57 54     89%     29.94 29.93      
Apr 02 05:53 ENE 7 10 Clear CLR 59 54     83%     29.95 29.94      
Apr 02 04:53 E 6 10 Clear CLR 60 55     83%     29.94 29.93      
Apr 02 03:53 ENE 6 10 Clear CLR 60 55     83%     29.95 29.94      
Apr 02 02:53 ENE 8 10 Mostly Clear FEW060 62 56     80%     29.95 29.94      
Apr 02 01:53 ENE 7 10 Mostly Cloudy BKN065 64 57     78%     29.96 29.95      
Apr 02 00:53 ENE 7 10 Partly Cloudy SCT070 66 57     73%     29.96 29.94      
Apr 01 23:53 3 10 Partly Cloudy SCT070 67 57     71%     29.98 29.96      
Apr 01 21:53 ENE 3 10 Partly Cloudy SCT065 71 57     61%   71 29.95 29.94      
Apr 01 20:53 ESE 6 10 Clear CLR 73 56     55%   73 29.93 29.92      
Apr 01 18:53 E 3 10 Mostly Cloudy BKN075 75 61     61%   75          
Apr 01 17:53 ENE 6 10 Clear CLR 79 59     51%   79          
Apr 01 16:53 6 10 Clear   79 57     48%   79          
Apr 01 14:53 ENE 8 10 Clear CLR 77 59     54%   77          
Apr 01 13:53 E 8 10 Clear CLR 75 59     57%   75          
Apr 01 12:53 E 7 10 Clear CLR 73 59     61%   73          
Apr 01 11:53 E 7 10 Clear CLR 72 57     60%   71 30.04        
Apr 01 10:53 ENE 7 10 Clear CLR 66 57     73%     30.05        
Apr 01 09:53 E 8 10 Clear CLR 63 55     77%     30.03        
Apr 01 08:53 E 10 10 Clear CLR 59 55     88%     30.03        
Apr 01 07:35 ENE 7 10 Clear CLR 55 54     94%     30.01        
Apr 01 00:53 E 5 10 Clear CLR 60 54     80%     29.9 29.89      
Mar 31 23:53 SE 6 10 Clear CLR 67 52     59%     29.88 29.87      
Mar 31 22:53 ESE 5 10 Clear CLR 68 52     57%     29.87 29.86      
Mar 31 21:53 ESE 6 10 Clear CLR 70 52     53%     29.86 29.85      
Mar 31 20:53 ESE 6 10 Clear CLR 71 53     53%   70 29.84 29.83      
Mar 31 19:53 ESE 5 10 Clear CLR 71 53     53%   70 29.82 29.81      
Mar 31 18:53 SE 7 10 Clear CLR 77 53     43%   76 29.81 29.8      
Mar 31 17:53 E 5 10 Clear CLR 80 55     42%   80 29.8 29.79      
Mar 31 16:53 SE 7 10 Clear CLR 81 51     35%   80 29.81 29.8      
Mar 31 15:53 3 10 Clear CLR 79 51     38%   78 29.81 29.8      
Mar 31 14:53 S 7 10 Clear CLR 77 53     43%   76 29.83 29.82      
Mar 31 13:53 S 6 10 Clear CLR 75 54     48%   74 29.85 29.84      
Mar 31 11:53 5 10 Clear CLR 68 52     57%     29.89 29.88      
Mar 31 10:53 E 6 10 Clear CLR 63 50     63%     29.9 29.89      
Mar 31 09:53 E 6 10 Clear CLR 58 49     72%     29.89 29.88      
Mar 31 08:53 E 6 10 Clear CLR 53 48     83%     29.88 29.87      
Mar 31 07:53 5 10 Clear CLR 49 48     97% 47   29.86 29.85      
Mar 31 06:53 Calm 10 Clear CLR 47 47     100%     29.84 29.84      
Mar 31 05:53 E 6 10 Clear CLR 48 48     100% 45   29.82 29.82      
Mar 31 04:53 ENE 3 10 Clear CLR 49 48     97% 48   29.81 29.8      
Mar 31 03:53 NE 5 10 Clear CLR 49 49     100% 47   29.81 29.8      
Mar 31 02:53 Calm 10 Clear CLR 51 50     96%     29.8 29.8      
Mar 31 01:53 Calm 10 Clear CLR 49 48     97%     29.8 29.79      
Mar 31 00:53 Calm 10 Clear CLR 51 48     89%     29.79 29.78      
Mar 30 23:53 Calm 10 Clear CLR 52 49     89%     29.79 29.78      
Mar 30 22:53 E 5 10 Clear CLR 55 49     80%     29.77 29.77      
Mar 30 21:53 Calm 10 Clear CLR 54 49     83%     29.77 29.76      
Mar 30 20:53 Calm 10 Clear   54 51     90%     29.75 29.74      
Mar 30 19:53 Calm 10 Clear CLR 55 51     86%     29.74 29.73      
Mar 30 18:53 NNW 5 10 Clear CLR 66 49     54%     29.73 29.72      
Mar 30 17:53 W 9 10 Clear   67 46     47%     29.73 29.72      
Mar 30 16:53 WNW 13 10 Mostly Cloudy BKN060 66 45     47%     29.73 29.72      
Mar 30 15:53 W 11 10 Cloudy FEW049 OVC060 65 46     50%     29.73 29.72      
Mar 30 14:53 WSW 13 10 Cloudy BKN049 OVC060 64 46     52%     29.75 29.74      
Mar 30 13:53 W 16 10 Cloudy OVC047 63 45     52%     29.76 29.75      
Mar 30 12:53 WSW 14 10 Cloudy OVC041 61 45     56%     29.78 29.77      
Mar 30 11:53 W 11 10 Clear   61 44     54%     29.8 29.79      
Mar 30 10:53 WNW 14 10 Mostly Clear FEW035 58 44     60%     29.81 29.8      
Mar 30 10:33 WNW 18 10 Mostly Clear FEW035 58 44     60%     29.82        
Mar 30 09:53 W 14 10 Clear CLR 56 44     64%     29.8 29.79      
Mar 30 08:53 WSW 13 10 Clear CLR 54 45     72%     29.79 29.78      
Mar 30 07:53 W 13 10 Clear CLR 52 46     80%     29.79 29.78      
Mar 30 06:53 WSW 10 10 Clear CLR 51 47     86%     29.8 29.79      
Mar 30 05:53 WSW 8 10 Mostly Cloudy BKN090 53 46     77%     29.78 29.77      
Mar 30 04:53   10 Mostly Clear FEW085 54 45     72%     29.77 29.76      
Mar 30 03:53 WNW 11 10 Clear CLR 56 48     75%     29.74 29.73      
Mar 30 02:53 W 10 10 Clear CLR 60 56     86%     29.73 29.72      
Mar 30 01:53 WSW 7 7 Clear CLR 61 61     100%     29.73 29.72      
Mar 30 00:53 SW 6 9 Clear CLR 62 61     96%     29.74 29.72     0
Mar 29 23:53 SW 6 10 Cloudy OVC085 63 62     97%     29.74 29.73      
Mar 29 23:12 S 10 10 Cloudy OVC070 65 63     93%     29.75        
Mar 29 22:53 S 9 10 Mostly Cloudy BKN070 65 63     93%     29.75 29.74 0    
Mar 29 22:26 S 9 10 Mostly Cloudy FEW029 SCT075 BKN100 65 61     87%     29.73   0    
Mar 29 22:15 SSE 13 7 Thunderstorms and Rain FEW015 BKN031 OVC100 65 63     93%     29.75   0    
Mar 29 22:10 S 14 2.5 Thunderstorms and Rain and Fog/Mist FEW019 BKN030 OVC080 65 63     93%     29.75   0    
Mar 29 22:00   6 Thunderstorms and Rain FEW016 BKN030 OVC042 67 62     84%     29.75   0    
Mar 29 21:53   10 Thunderstorms FEW014 BKN030 OVC050 69 65     87%     29.75 29.73      
Mar 29 21:40 SSE 16 10 Thunderstorms SCT036 BKN046 OVC055 68 66     93%     29.72        
Mar 29 21:31 SSE 14 10 Mostly Cloudy BKN040 BKN048 BKN060 68 66     93%     29.73        
Mar 29 20:53 S 6 10 Partly Cloudy FEW029 SCT034 69 65     87%     29.72 29.71      
Mar 29 19:53 SSE 7 10 Partly Cloudy FEW035 SCT070 67 66     97%     29.72 29.71      
Mar 29 18:53 S 9 10 Mostly Cloudy SCT048 SCT055 BKN070 69 66     90%     29.73 29.72 0   0
Mar 29 18:12 S 11 10 Cloudy BKN040 BKN049 OVC080 70 66     87%     29.73   0    
Mar 29 18:00 SSE 13 10 Light Rain BKN042 BKN055 OVC080 71 67     87%   72 29.74   0    
Mar 29 17:53 SSE 13 4 Light Rain BKN041 BKN050 OVC080 71 66     84%   72 29.73 29.72 0    
Mar 29 16:53 S 11 10 Partly Cloudy FEW046 SCT060 SCT110 79 64     60%   79 29.71 29.7      
Mar 29 15:53 S 14 10 Mostly Cloudy SCT042 BKN050 77 63     62%   77 29.72 29.7      
Mar 29 14:53 SSE 15 10 Mostly Clear FEW044 76 63     64%   76 29.75 29.74      
Mar 29 14:02 S 16 10 Cloudy SCT026 BKN038 OVC045 74 65     74%   74 29.79        
Mar 29 13:53 S 16 10 Cloudy BKN026 OVC036 74 65     74%   74 29.78 29.77      
Mar 29 13:44 S 13 10 Cloudy FEW024 SCT030 OVC038 74 66     76%   75 29.78        
Mar 29 12:53 S 16 10 Mostly Cloudy BKN026 73 63     71%   73 29.8 29.79     0
Mar 29 11:53 SSE 9 10 Clear CLR 69 62     78%     29.8 29.79      
Mar 29 10:53 SE 11 10 Mostly Clear FEW045 64 62     93%     29.8 29.79 0    
Mar 29 09:53 SSE 15 10 Partly Cloudy SCT006 SCT120 63 62     97%     29.84 29.83   0  
Mar 29 09:49 SSE 14 10 Partly Cloudy SCT004 SCT110 63 63     100%     29.84        
Mar 29 09:20 SE 9 10 Mostly Cloudy BKN004 61 61     100%     29.82        
Mar 29 09:08 ESE 8 10 Mostly Clear FEW004 61 61     100%     29.81        
Mar 29 08:53 SE 8 10 Clear CLR 61 61     100%     29.84 29.83 0    
Mar 29 07:53 SW 8 10 Light Rain SCT060 BKN075 OVC100 62 61     96%     29.87 29.86 0    
Mar 29 07:51 SW 7 10 Light Rain BKN060 OVC095 63 61     94%     29.87   0    
Mar 29 07:37 WSW 7 9 Thunderstorms and Rain FEW049 OVC060 63 60     90%     29.86   0    
Mar 29 07:30 W 7 9 Light Rain FEW011 SCT049 OVC055 63 61     93%     29.85   0    
Mar 29 07:13   4 Rain and Fog/Mist FEW010 SCT018 BKN032 64 62     93%     29.84   0    
Mar 29 06:53 ESE 9 10 Partly Cloudy FEW011 FEW036 SCT100 66 64     93%     29.79 29.78     0
Mar 29 05:53 SE 13 10 Cloudy FEW055 BKN090 OVC100 67 63     87%     29.79 29.78 0    
Mar 29 04:53 SSE 8 10 Cloudy SCT060 OVC080 67 63     87%     29.82 29.81      
Mar 29 03:53 ESE 9 10 Mostly Cloudy BKN050 67 63     87%     29.77 29.75      
Mar 29 02:53 SSE 9 10 Mostly Cloudy BKN060 67 63     87%     29.81 29.8      
Mar 29 01:53 SE 5 10 Mostly Clear FEW055 66 62     87%     29.81 29.8      
Mar 29 00:53 ESE 5 10 Clear CLR 68 63     84%     29.82 29.8      
Mar 28 23:53 SE 6 10 Clear CLR 70 63     78%     29.82 29.81      
Mar 28 22:53 ESE 7 10 Mostly Clear FEW055 71 65     81%   72 29.82 29.81      
Mar 28 21:53 5 9 Partly Cloudy SCT055 71 66     84%   72 29.81 29.8      
Mar 28 20:53 ENE 6 9 Mostly Clear FEW047 FEW080 72 66     82%   73 29.81 29.79      
Mar 28 19:53 E 3 10 Mostly Cloudy BKN060 73 67     81%   74 29.81 29.79      
Mar 28 18:53 E 3 10 Mostly Clear FEW050 75 66     74%   76 29.79 29.78      
Mar 28 17:53 E 6 10 Cloudy FEW047 OVC055 77 64     64%   77 29.8 29.79      
Mar 28 16:53 ENE 7 10 Mostly Clear FEW060 76 66     71%   77 29.82 29.81      
Mar 28 15:53 E 9 10 Clear   75 65     71%   76 29.85 29.84      
Mar 28 15:12 5 10 Mostly Cloudy BKN033 74 65     74%   74 29.88        
Mar 28 14:56 E 6 10 Mostly Cloudy BKN029 74 65     74%   74 29.89        
Mar 28 14:53 ENE 7 10 Mostly Clear FEW029 74 65     74%   74 29.89 29.88      
Mar 28 14:32 NE 7 10 Clear CLR 73 65     76%   74 29.9        
Mar 28 14:15 3 10 Mostly Cloudy BKN030 72 64     76%   72 29.91        
Mar 28 13:53 E 5 10 Cloudy OVC027 70 63     78%     29.93 29.92      
Mar 28 13:10 6 10 Cloudy SCT013 BKN020 OVC029 68 63     84%     29.94        
Mar 28 12:53 ESE 6 9 Cloudy OVC014 67 62     84%     29.95 29.94      
Mar 28 12:32 ESE 8 10 Cloudy BKN014 OVC027 68 61     78%     29.96        
Mar 28 11:53 SE 7 10 Cloudy BKN017 OVC024 68 60     76%     29.97 29.96      
Mar 28 10:53 E 6 10 Mostly Cloudy BKN019 66 59     78%     29.97 29.96